Home   Weather   Melbourne Port   Past weeks
Flag for Australia

Past Weather in Melbourne Port, Victoria, Australia — Yesterday and Last 2 Weeks

Now
68 °F

Clear.


Feels Like: 68 °F
Forecast: 87 / 58 °F
Wind: 5 mph from South

Location: Melbourne Airport

Current Time: Oct 23, 2019 at 9:31:19 pm

Latest Report: Oct 23, 2019 at 9:00 pm


Visibility: 10 mi

Pressure: 30.07 "Hg

Humidity: 30%

Dew Point: 36 °F

Location of Melbourne PortLocation

Past Weather in Melbourne Port — Graph

°F

Melbourne Port Temperature Yesterday

Maximum temperature yesterday: 72 °F (at 3:00 pm)
Minimum temperature yesterday: 50 °F (at 11:00 pm)
Average temperature yesterday: 59 °F

High & Low Weather Summary for the Past Weeks

 TemperatureHumidityPressure
High82 °F (Oct 23, 2:00 pm)100% (Oct 10, 1:00 am)30.39 "Hg (Oct 10, 1:00 am)
Low41 °F (Oct 18, 6:00 am)16% (Oct 23, 4:30 pm)29.71 "Hg (Oct 17, 2:30 am)
Average55 °F69%30.08 "Hg
* Reported Oct 8 8:00 pm — Oct 23 8:00 pm, Melbourne Port. Weather by CustomWeather, © 2019

Note: Actual official high and low records may vary slightly from our data, if they occured in-between our weather recording intervals... More about our weather records

Advertising

Melbourne Port Weather History for the Previous 24 Hours

Scroll right to see more
 ConditionsComfort  
Time TempWeatherWind HumidityBarometerVisibility
8:00 pm
Wed, Oct 23
70 °FClear.8 mph31%30.04 "Hg10 mi
7:30 pm73 °FSunny.6 mph29%30.04 "Hg10 mi
7:00 pm77 °FSunny.9 mph22%30.04 "Hg10 mi
6:30 pm79 °FSunny.13 mph21%30.04 "Hg10 mi
6:00 pm81 °FSunny.13 mph20%30.04 "Hg10 mi
5:30 pm82 °FSunny.10 mph19%30.04 "Hg10 mi
5:00 pm82 °FSunny.6 mph17%30.04 "Hg10 mi
4:30 pm82 °FSunny.9 mph16%30.04 "Hg10 mi
4:00 pm82 °FSunny.9 mph17%30.04 "Hg10 mi
3:30 pm82 °FSunny.10 mph17%30.07 "Hg10 mi
3:00 pm82 °FSunny.16 mph19%30.07 "Hg10 mi
2:30 pm82 °FSunny.9 mph21%30.07 "Hg10 mi
2:00 pm82 °FSunny.7 mph19%30.09 "Hg10 mi
1:30 pm81 °FPassing clouds.8 mph18%30.09 "HgN/A
1:00 pm81 °FSunny.8 mph20%30.09 "Hg10 mi
12:30 pm81 °FSunny.7 mph17%30.12 "HgN/A
12:00 pm79 °FSunny.7 mph20%30.12 "Hg10 mi
11:00 am75 °FSunny.1 mph24%30.15 "Hg10 mi
10:30 am72 °FSunny.3 mph31%30.15 "Hg10 mi
10:00 am70 °FSunny.3 mph35%30.15 "Hg10 mi
9:30 am68 °FSunny.1 mph38%30.15 "Hg10 mi
9:00 am63 °FSunny.7 mph42%30.15 "Hg10 mi
8:30 am57 °FSunny.10 mph48%30.15 "Hg10 mi
8:00 am52 °FSunny.10 mph58%30.15 "Hg10 mi
7:30 am48 °FPassing clouds.5 mph71%30.15 "HgN/A
7:00 am46 °FSunny.12 mph66%30.15 "Hg10 mi
6:30 am46 °FSunny.7 mph62%30.15 "Hg10 mi
6:00 am43 °FClear.8 mph76%30.15 "Hg10 mi
5:30 am45 °FClear.9 mph71%30.15 "Hg10 mi
5:00 am43 °FClear.5 mph76%30.15 "Hg10 mi
4:30 am45 °FClear.10 mph71%30.15 "Hg10 mi
4:00 am45 °FClear.6 mph71%30.15 "Hg10 mi
3:30 am46 °FClear.7 mph71%30.15 "Hg10 mi
3:00 am46 °FClear.12 mph71%30.15 "Hg10 mi
2:30 am48 °FClear.10 mph76%30.15 "Hg10 mi
2:00 am48 °FClear.8 mph76%30.18 "Hg10 mi
1:30 am48 °FClear.8 mph76%30.18 "Hg10 mi
1:00 am48 °FClear.8 mph82%30.18 "Hg10 mi
12:30 am48 °FClear.5 mph82%30.21 "Hg10 mi
12:00 am48 °FClear.7 mph82%30.21 "Hg10 mi
11:30 pm
Tue, Oct 22
52 °FClear.6 mph77%30.21 "Hg10 mi
11:00 pm50 °FClear.7 mph82%30.21 "Hg10 mi
10:30 pm54 °FClear.5 mph77%30.21 "Hg10 mi
10:00 pm55 °FClear.6 mph72%30.21 "Hg10 mi
9:30 pm55 °FClear.1 mph67%30.21 "Hg10 mi
9:00 pm57 °FClear.5 mph63%30.21 "Hg10 mi
Weather by CustomWeather, © 2019

See weather overview